Location: *
(45.0500°N, 12.0500°E)
Time: 12:40:15
(UTC+00:00)

Cosmos 1980 Rocket - Visible Passes

Search period start: 06 August 2020 00:00
Search period end: 16 August 2020 00:00
Orbit: 828 x 851 km, 71.0° (Epoch: 05 August)

Date Brightness Start Highest point End Pass type
(mag) Time Alt. Az. Time Alt. Az. Time Alt. Az.
06 Aug 3.8 19:27:11 10° N 19:31:32 22° NE 19:35:50 10° E visible
06 Aug 2.2 21:10:28 10° NNW 21:16:09 73° WSW 21:17:42 48° S visible
06 Aug 4.6 22:58:42 10° W 22:59:04 10° W 22:59:28 10° W visible
07 Aug 3.8 19:11:33 10° N 19:15:46 21° NE 19:19:57 10° E visible
07 Aug 2.2 20:54:45 10° NNW 21:00:27 78° WSW 21:02:22 43° S visible
07 Aug 4.5 22:41:59 10° W 22:43:26 11° W 22:44:08 11° WSW visible
08 Aug 3.9 18:55:55 10° N 19:00:00 20° NE 19:04:05 10° E visible
08 Aug 2.2 20:39:02 10° NNW 20:44:45 82° WSW 20:47:05 37° SSE visible
08 Aug 4.5 22:25:47 10° WNW 22:27:47 12° W 22:28:51 11° WSW visible
09 Aug 2.2 20:23:20 10° NNW 20:29:02 87° WSW 20:31:50 32° SSE visible
09 Aug 4.4 22:09:43 10° WNW 22:12:07 13° W 22:13:36 12° WSW visible
10 Aug 2.2 20:07:37 10° NNW 20:13:20 88° ENE 20:16:38 26° SSE visible
10 Aug 4.4 21:53:44 10° WNW 21:56:28 14° W 21:58:23 12° WSW visible
11 Aug 2.2 19:51:55 10° NNW 19:57:38 84° ENE 20:01:27 22° SSE visible
11 Aug 4.4 21:37:48 10° WNW 21:40:50 15° W 21:43:14 12° SW visible
12 Aug 2.2 19:36:13 10° NNW 19:41:55 79° ENE 19:46:20 17° SSE visible
12 Aug 4.4 21:21:53 10° WNW 21:25:10 16° W 21:28:07 11° SW visible
13 Aug 2.2 19:20:31 10° NNW 19:26:13 75° ENE 19:31:16 13° SSE visible
13 Aug 4.4 21:06:00 10° WNW 21:09:30 17° W 21:13:01 10° SW visible
14 Aug 2.2 19:04:49 10° NNW 19:10:30 70° ENE 19:16:07 10° SSE visible
14 Aug 4.4 20:50:08 10° WNW 20:53:51 18° W 20:57:33 10° SW visible
15 Aug 2.3 18:49:07 10° NNW 18:54:47 66° ENE 19:00:23 10° SE visible
15 Aug 4.3 20:34:17 10° NW 20:38:12 19° W 20:42:05 10° SW visible
